Location: Clairmont
(55.2667°N, 118.8000°W)
Time: 09:26:59
(UTC+00:00)

N. Korean satellite - Pass Details

Date: 31 October 2020
Orbit: 453 x 503 km, 97.2° (Epoch: 03 December)

Event Time Altitude Azimuth Distance (km) Brightness Sun altitude
Rises 13:01:20 0° 21° (NNE) 2,486 10.4 -17.1°
Reaches altitude 10° 13:03:33 10° 32° (NNE) 1,604 9.6 -16.8°
Maximum altitude 13:06:37 30° 96° (E) 838 8.5 -16.3°
Drops below altitude 10° 13:09:41 10° 160° (SSE) 1,592 9.5 -15.9°
Sets 13:11:53 0° 171° (S) 2,463 10.3 -15.6°
